国际通讯卫星 512星 (INTELSAT 512)

导读 | 星芒AI

INTELSAT 512 是一颗由国际通信卫星组织(INTELSAT)运营的通信卫星,于1995年发射,旨在提供跨大西洋的固定卫星服务(FSS)。该卫星位于西经69度的轨道位置,主要用于广播、新闻采集和企业通信。INTELSAT 512 搭载C波段和Ku波段转发器,支持高带宽数据传输,广泛服务于北美和欧洲地区。尽管其已逐渐被更新的卫星取代,但在其服役期间对全球通信网络的发展起到了重要作用。

基本信息
目录编号:
16101
目录名称:
INTELSAT 512
国际标识:
1985-087A
轨道中心:
EARTH
卫星名称:
国际通讯卫星 512星
卫星全名:
国际通讯卫星 512星 (INTELSAT 512)
卫星状态:
在轨 (已飞行14688 天)
发射日期:
1985-09-28 UTC
国别 :
(ITSO)
星等 :
--
轨道信息
数据来源 国际轨道数据
星历时间: 2025-12-14T08:52:10+0800
1天前
查看轨道信息
半长轴: 42492.829km
偏心率: 0.0013303
轨道倾角: 14.214°
近地点辐角 301.050°
升交点赤经 345.090°
平近点角 50.785°
近地点: 36058.165km
远地点: 36171.223km
周期: 1452.892分钟
每日圈数: 0.991127
详细信息
卫星平台:
Intelsat V
平衡模式:
三轴稳定
覆盖范围:
全球
运营商:
国际卫星通信公司
运营商所在国:
美国
制造商(研发单位):
福特工程公司
制造商所在国:
美国
使用方式:
暂无
卫星简介
从1965年4月至1984年3月,国际通信卫星组织发射了5代、6种不同性能的卫星共计35颗,除6颗卫星因运载火箭和远地点发动机故障而发射失败外,其余29颗卫星均被送到了预定的静止轨道位置。1984年8月前后,国际通信卫星组织利用部署在大西洋、太平洋、印度洋上空的15颗国际通信卫星,为遍布世界各地170多个国家或地区提供电话、电传、电报、电视和数据传输等电信业务;该卫星已退役。
2D轨道图
3D轨道图
轨道高度分析图
轨道倾角分析图
轨道综合分析图
查看轨道综合分析图